[[{"header":{"parameterUnit":"m.s-1","parameterCategory":1,"la1":30.2991,"la2":30.254,"lo1":-89.0895,"lo2":-89.0444,"dy":0.0017,"dx":0.0017,"nx":28,"ny":28,"refTime":"2024-03-22T21:00:00:Z","depth":0,"parameterNumber":2,"parameterNumberName":"U-component_of_WINDS"},"data":[0,0,0,0,0,0,0,0,0,0,0,0,0,0,0,0,0,0,0,0,0,0,0,0,0,0,0,0,0,0,0,0,0,0,0,0,0,0,0,0,0,0,0,0,0,0,0,0,0,0,0,0,0,0,0,0,0,0,0.636,0.636,0,0.6332,0.6331,0.6331,0.6345,0.6345,0.6346,0.6347,0.6316,0.6315,0.6313,0,0,0,0,0,0,0,0,0,0,0,0,0,0.6427,0.6426,0.636,0.636,0.636,0.6332,0.6331,0.6331,0.6344,0.6345,0.6346,0.6347,0.6317,0.6315,0.6313,0,0,0,0,0,0,0,0,0,0,0,0,0,0.6398,0.6426,0.636,0.6363,0.6363,0.6332,0.6331,0.6331,0.6344,0.6345,0.6346,0.6347,0.6317,0.6315,0.6313,0.6277,0,0,0.6306,0.6305,0,0,0,0,0,0,0,0,0.64,0.6396,0.6363,0.6363,0.6363,0.6343,0.6344,0.6313,0.6344,0.6351,0.6347,0.6348,0.6324,0.6321,0.6314,0.6276,0.6274,0.6306,0.6305,0.6304,0.6303,0,0,0,0,0,0,0,0.6402,0.6397,0.6349,0.6362,0.6362,0.6366,0.6363,0.6338,0.6332,0.6351,0.6352,0.6348,0.6324,0.6316,0.6313,0.6274,0.6306,0.6304,0.6303,0.6302,0.6207,0.6206,0,0,0,0,0,0,0.6404,0.6399,0.635,0.6348,0.6384,0.6364,0.636,0.6348,0.6332,0.6331,0.6347,0.6349,0.6319,0.6316,0.6312,0.627,0.6304,0.6302,0.63,0.6208,0.6207,0.6206,0,0,0,0,0,0,0.6405,0.6399,0.6351,0.6374,0.6368,0.6361,0.6347,0.6347,0.6338,0.633,0.6329,0.634,0.632,0.6315,0.6286,0.6269,0.6301,0.6299,0.621,0.6208,0.6206,0.6185,0,0,0,0,0,0,0.6407,0.64,0.6386,0.6373,0.6366,0.6325,0.6346,0.6346,0.6335,0.6336,0.6322,0.6321,0.632,0.629,0.6284,0.6267,0.6297,0.6211,0.6209,0.6207,0.6187,0.6183,0.6179,0,0,0,0,0,0.6409,0.638,0.6385,0.6379,0.6349,0.6324,0.632,0.6321,0.6333,0.6319,0.6314,0.6321,0.6272,0.6286,0.628,0.6262,0.6212,0.621,0.6207,0.6189,0.6184,0.6179,0,0,0,0,0,0,0.639,0.6379,0.6384,0.635,0.6338,0.6327,0.6309,0.6315,0.6299,0.6301,0.6302,0.6299,0.6269,0.6263,0.6279,0.6227,0.6244,0.624,0.6233,0.6227,0.6223,0.6225,0.6295,0,0,0,0,0,0.6382,0.6363,0.6354,0.6325,0.6319,0.6315,0.6304,0.6306,0.6294,0.6289,0.6281,0.6269,0.6251,0.6239,0.6222,0.6187,0.6184,0.6171,0.6167,0.6164,0.616,0.6143,0.6137,0.6197,0.6197,0.6197,0,0,0.6364,0.6356,0.6344,0.6321,0.6312,0.6293,0.6311,0.6289,0.6275,0.6285,0.6258,0.6252,0.6239,0.6207,0.6193,0.6201,0.6143,0.616,0.6158,0.6156,0.6139,0.6134,0.6129,0.6195,0.6196,0.6196,0,0,0.6323,0.6315,0.629,0.6281,0.6268,0.6266,0.626,0.6249,0.6246,0.6218,0.6226,0.6209,0.6178,0.6169,0.616,0.6117,0.6124,0.6112,0.609,0.6073,0.6068,0.6064,0.6049,0.6044,0.6108,0.6108,0.6108,0,0.6303,0.6274,0.6276,0.6255,0.6245,0.6255,0.623,0.6222,0.6203,0.6196,0.6206,0.6168,0.6159,0.6126,0.6116,0.6109,0.6102,0.6113,0.6069,0.6064,0.6061,0.6047,0.6041,0.6107,0.6107,0.6107,0.6107,0,0.6251,0.6231,0.6213,0.6196,0.6184,0.6161,0.616,0.6148,0.6151,0.6148,0.6121,0.6112,0.6094,0.6086,0.6088,0.6054,0.6059,0.6069,0.6085,0.6053,0.6041,0.6035,0.6105,0.6105,0.6106,0.6106,0,0,0.6194,0.6181,0.6174,0.6167,0.6155,0.6139,0.6118,0.6101,0.6091,0.6078,0.606,0.6035,0.6044,0.6034,0.6035,0.602,0.5989,0.6032,0.6032,0.6024,0.5951,0.5944,0.5938,0.5993,0.5992,0.5991,0.5952,0,0.6153,0.6114,0.6117,0.6081,0.6063,0.6074,0.6055,0.6045,0.6042,0.6027,0.6024,0.6006,0.602,0.6014,0.6,0.5996,0.5974,0.5998,0.5977,0.5976,0.598,0.5931,0.5923,0.5886,0.5947,0.5946,0.5946,0,0.6098,0.6085,0.6048,0.604,0.6032,0.6015,0.6001,0.5986,0.5976,0.5975,0.5965,0.597,0.5948,0.5966,0.5937,0.5954,0.5945,0.5942,0.5941,0.5939,0.5959,0.5927,0.5875,0.5869,0.5938,0.5938,0.5939,0,0.6061,0.6035,0.6009,0.6003,0.5993,0.5981,0.5976,0.5967,0.5957,0.5945,0.5938,0.5923,0.5915,0.5903,0.5904,0.5917,0.5875,0.5893,0.5874,0.5874,0.5864,0.5865,0.5809,0.5859,0.5859,0.5859,0.5859,0,0.6014,0.5991,0.5993,0.5977,0.5952,0.5956,0.5931,0.5927,0.592,0.5904,0.5912,0.5897,0.5899,0.5884,0.5885,0.5861,0.5857,0.5856,0.5857,0.5855,0.5856,0.5849,0.5852,0.5858,0.5858,0.5858,0.5858,0,0.5968,0.5969,0.5942,0.5935,0.5933,0.5915,0.5909,0.5894,0.5893,0.5873,0.5869,0.5867,0.585,0.585,0.5831,0.5831,0.5803,0.5806,0.5806,0.5807,0.5788,0.579,0.5727,0.5719,0.5773,0.5773,0.5772,0,0.5938,0.592,0.5912,0.5903,0.5898,0.5882,0.5872,0.5876,0.5866,0.5854,0.5841,0.5826,0.5813,0.5786,0.5783,0.5768,0.5771,0.575,0.5769,0.5769,0.5771,0.5772,0.5771,0.5746,0.5746,0.5745,0.5745,0,0.5884,0.5886,0.5872,0.5859,0.5848,0.5837,0.5828,0.582,0.5822,0.5811,0.5794,0.5785,0.5766,0.575,0.5737,0.5732,0.5739,0.5739,0.5734,0.5732,0.5734,0.5733,0.5796,0.574,0.5741,0.5741,0.5741,0.5741,0.5845,0.5831,0.5824,0.5809,0.5802,0.5794,0.578,0.5778,0.5765,0.575,0.5753,0.5735,0.5727,0.571,0.5704,0.569,0.5697,0.569,0.5688,0.5686,0.5684,0.5736,0.5688,0.5688,0.5688,0.5688,0.5688,0,0.5792,0.5788,0.5775,0.5762,0.5751,0.576,0.575,0.574,0.5724,0.5716,0.5704,0.5686,0.5672,0.5668,0.5654,0.5644,0.5647,0.564,0.5641,0.564,0.5678,0.5684,0.5638,0.5638,0.5638,0.5638,0.5638,0.5638,0.5763,0.574,0.5741,0.5715,0.5712,0.5694,0.5689,0.5681,0.5675,0.5655,0.5643,0.5642,0.5636,0.5622,0.561,0.5609,0.5604,0.5596,0.5596,0.5632,0.5637,0.5642,0.5647,0.5594,0.5594,0.5559,0.5559,0.5559]},{"header":{"parameterUnit":"m.s-1","parameterCategory":1,"la1":30.2991,"la2":30.254,"lo1":-89.0895,"lo2":-89.0444,"dy":0.0017,"dx":0.0017,"nx":28,"ny":28,"refTime":"2024-03-22T21:00:00:Z","depth":0,"parameterNumber":3,"parameterNumberName":"V-component_of_WINDS"},"data":[0,0,0,0,0,0,0,0,0,0,0,0,0,0,0,0,0,0,0,0,0,0,0,0,0,0,0,0,0,0,0,0,0,0,0,0,0,0,0,0,0,0,0,0,0,0,0,0,0,0,0,0,0,0,0,0,0,0,-3.3924,-3.3922,0,-3.3727,-3.3725,-3.3723,-3.3638,-3.3638,-3.3638,-3.3639,-3.3431,-3.3425,-3.342,0,0,0,0,0,0,0,0,0,0,0,0,0,-3.422,-3.4215,-3.3924,-3.3922,-3.3919,-3.3728,-3.3725,-3.3722,-3.3638,-3.3638,-3.3638,-3.3639,-3.3433,-3.3426,-3.3419,0,0,0,0,0,0,0,0,0,0,0,0,0,-3.4064,-3.4214,-3.3924,-3.3854,-3.3846,-3.3728,-3.3725,-3.3721,-3.3637,-3.3638,-3.3638,-3.3639,-3.3435,-3.3427,-3.3418,-3.3354,0,0,-3.3391,-3.3388,0,0,0,0,0,0,0,0,-3.4073,-3.4053,-3.3867,-3.3859,-3.3849,-3.3708,-3.3753,-3.3598,-3.3637,-3.3716,-3.3639,-3.3639,-3.3522,-3.3506,-3.3468,-3.3344,-3.3335,-3.3391,-3.3385,-3.3381,-3.3379,0,0,0,0,0,0,0,-3.4084,-3.4061,-3.3846,-3.3864,-3.3853,-3.383,-3.3809,-3.3723,-3.3619,-3.3709,-3.3703,-3.3681,-3.3517,-3.3477,-3.3463,-3.3332,-3.3391,-3.3383,-3.3378,-3.3374,-3.3145,-3.3144,0,0,0,0,0,0,-3.4107,-3.4071,-3.3852,-3.384,-3.3965,-3.3824,-3.38,-3.3752,-3.3619,-3.36,-3.3681,-3.3678,-3.3492,-3.3473,-3.3455,-3.337,-3.3382,-3.3373,-3.3368,-3.3146,-3.3145,-3.3144,0,0,0,0,0,0,-3.4114,-3.4089,-3.386,-3.3954,-3.3923,-3.3819,-3.3766,-3.3748,-3.3708,-3.3598,-3.3578,-3.3659,-3.3491,-3.3467,-3.338,-3.3362,-3.3369,-3.3361,-3.3147,-3.3146,-3.3145,-3.3202,0,0,0,0,0,0,-3.4123,-3.4092,-3.4068,-3.3954,-3.3918,-3.379,-3.3765,-3.3744,-3.3693,-3.3688,-3.3572,-3.3553,-3.349,-3.3394,-3.3371,-3.335,-3.3355,-3.3148,-3.3146,-3.3145,-3.3201,-3.3203,-3.3204,0,0,0,0,0,-3.4134,-3.409,-3.4067,-3.4041,-3.3886,-3.379,-3.3769,-3.3698,-3.3693,-3.3666,-3.3596,-3.3557,-3.3368,-3.3385,-3.336,-3.3336,-3.3149,-3.3147,-3.3145,-3.32,-3.3203,-3.3204,0,0,0,0,0,0,-3.4202,-3.4074,-3.4047,-3.3966,-3.389,-3.3776,-3.374,-3.3703,-3.3625,-3.3623,-3.3537,-3.3511,-3.3431,-3.3374,-3.3396,-3.3266,-3.3255,-3.3248,-3.3306,-3.3307,-3.3309,-3.3323,-3.3347,0,0,0,0,0,-3.4209,-3.4143,-3.4033,-3.3972,-3.3936,-3.3845,-3.38,-3.3753,-3.3669,-3.3636,-3.3559,-3.3478,-3.34,-3.3351,-3.3273,-3.3193,-3.3166,-3.3164,-3.3166,-3.3167,-3.3162,-3.3114,-3.3111,-3.3138,-3.3138,-3.3138,0,0,-3.422,-3.4142,-3.4105,-3.3984,-3.3919,-3.3851,-3.3818,-3.3747,-3.3695,-3.3624,-3.3538,-3.3479,-3.3382,-3.3299,-3.3258,-3.3249,-3.3149,-3.3165,-3.3167,-3.316,-3.3112,-3.3109,-3.3107,-3.3137,-3.3137,-3.3137,0,0,-3.4205,-3.414,-3.4082,-3.4018,-3.3922,-3.3862,-3.3848,-3.3739,-3.3698,-3.361,-3.3556,-3.3492,-3.336,-3.3293,-3.3242,-3.3203,-3.3164,-3.318,-3.3188,-3.3142,-3.314,-3.3138,-3.3123,-3.3119,-3.3175,-3.3176,-3.3176,0,-3.423,-3.4127,-3.4056,-3.3988,-3.3936,-3.3872,-3.3811,-3.3752,-3.3634,-3.3598,-3.3591,-3.3425,-3.3355,-3.3254,-3.3245,-3.3206,-3.3186,-3.3192,-3.3147,-3.3144,-3.314,-3.3125,-3.312,-3.3178,-3.3178,-3.3177,-3.3177,0,-3.4162,-3.4092,-3.4056,-3.3946,-3.389,-3.3826,-3.3744,-3.3695,-3.3653,-3.3593,-3.3504,-3.3419,-3.3323,-3.3295,-3.3252,-3.3188,-3.3186,-3.3164,-3.315,-3.3142,-3.3126,-3.3119,-3.3182,-3.3181,-3.318,-3.3179,0,0,-3.4184,-3.4037,-3.4025,-3.3974,-3.3863,-3.3806,-3.3739,-3.3647,-3.3606,-3.3527,-3.3467,-3.3358,-3.3337,-3.3279,-3.3228,-3.3189,-3.3162,-3.3171,-3.3168,-3.3172,-3.3085,-3.3101,-3.3095,-3.3137,-3.3135,-3.3134,-3.3092,0,-3.4153,-3.4032,-3.3966,-3.3871,-3.3804,-3.3742,-3.3683,-3.3608,-3.3551,-3.3484,-3.3419,-3.3343,-3.3322,-3.3287,-3.3245,-3.3175,-3.3143,-3.3177,-3.3078,-3.3075,-3.3103,-3.3087,-3.3104,-3.3068,-3.3086,-3.3085,-3.3084,0,-3.4101,-3.4025,-3.3925,-3.3821,-3.3791,-3.3739,-3.3649,-3.3587,-3.35,-3.3461,-3.3397,-3.3347,-3.3272,-3.3266,-3.316,-3.3184,-3.314,-3.3099,-3.3096,-3.3083,-3.3078,-3.3072,-3.3056,-3.305,-3.3073,-3.3074,-3.3075,0,-3.4125,-3.3998,-3.3921,-3.388,-3.3758,-3.3723,-3.367,-3.3583,-3.3532,-3.3453,-3.3419,-3.3332,-3.3284,-3.3217,-3.3144,-3.3146,-3.3044,-3.3033,-3.3008,-3.301,-3.2988,-3.299,-3.2963,-3.2962,-3.2962,-3.2963,-3.2963,0,-3.4097,-3.4037,-3.3931,-3.3883,-3.3814,-3.3739,-3.3672,-3.3614,-3.3538,-3.3476,-3.3417,-3.336,-3.3268,-3.32,-3.3142,-3.3063,-3.3042,-3.3007,-3.2992,-3.3011,-3.3015,-3.2979,-3.2979,-3.2961,-3.2961,-3.2962,-3.2962,0,-3.4112,-3.4038,-3.395,-3.3843,-3.3814,-3.3768,-3.3675,-3.3625,-3.3566,-3.3489,-3.3467,-3.3372,-3.3288,-3.321,-3.3097,-3.3059,-3.2978,-3.296,-3.3008,-3.3,-3.2979,-3.2982,-3.2927,-3.2915,-3.2925,-3.2925,-3.2925,0,-3.4098,-3.4051,-3.3939,-3.3895,-3.3844,-3.3773,-3.3721,-3.3645,-3.3593,-3.349,-3.3453,-3.3365,-3.3291,-3.316,-3.308,-3.2994,-3.2972,-3.2959,-3.2958,-3.2979,-3.297,-3.2973,-3.2967,-3.296,-3.296,-3.296,-3.296,0,-3.4081,-3.4047,-3.3975,-3.3891,-3.3831,-3.3761,-3.3688,-3.3655,-3.3564,-3.3508,-3.3423,-3.3366,-3.3252,-3.3165,-3.307,-3.3013,-3.2971,-3.2962,-3.2951,-3.2969,-3.2999,-3.2981,-3.3011,-3.2962,-3.2962,-3.2962,-3.2962,-3.2962,-3.4079,-3.4035,-3.3949,-3.3871,-3.3809,-3.3743,-3.3691,-3.3626,-3.3554,-3.3457,-3.3416,-3.3329,-3.3242,-3.311,-3.3054,-3.2984,-3.2974,-3.2959,-3.2955,-3.2952,-3.2956,-3.3012,-3.2966,-3.2966,-3.2966,-3.2966,-3.2966,0,-3.4058,-3.4,-3.393,-3.3831,-3.3769,-3.3737,-3.3655,-3.3605,-3.3531,-3.3454,-3.3383,-3.3285,-3.32,-3.3115,-3.3025,-3.2985,-3.2964,-3.2964,-3.2965,-3.2953,-3.297,-3.2988,-3.2983,-3.2983,-3.2983,-3.2983,-3.2983,-3.2983,-3.404,-3.3962,-3.3918,-3.3809,-3.375,-3.3667,-3.3622,-3.356,-3.3499,-3.3392,-3.3323,-3.3268,-3.3187,-3.3092,-3.3012,-3.2989,-3.2958,-3.2964,-3.2935,-3.2952,-3.2952,-3.2951,-3.2967,-3.2958,-3.2958,-3.2923,-3.2923,-3.2923]}]]